Manhattan, KS

6:35 PM CST on February 24, 2017 (GMT -0600)
Manhattan Regional

Weather History for KMHK - August, 2013

Change the Weather History Date:

Sunday, August 4, 2013

  Actual Average Record
Temperature  
Mean Temperature 73 °F 79 °F  
Max Temperature 77 °F 91 °F 107 °F (2008)
Min Temperature 68 °F 67 °F 62 °F (2006)
Degree Days  
Heating Degree Days 0 0  
Month to date heating degree days 0 0  
Since 1 June heating degree days 12 12  
Since 1 July heating degree days 3 1  
Cooling Degree Days 8 14  
Month to date cooling degree days 45 56  
Year to date cooling degree days 892 862  
Since 1 June cooling degree days 756 762  
Growing Degree Days 22 (Base 50)    
Moisture  
Dew Point 69 °F    
Average Humidity 87    
Maximum Humidity 97    
Minimum Humidity 76    
Precipitation  
Precipitation 0.55 in 0.08 in 0.55 in (2013)
Month to date precipitation 2.47 0.36  
Year to date precipitation 19.59 20.62  
Sea Level Pressure  
Sea Level Pressure 30.07 in    
Wind  
Wind Speed 6 mph (East)    
Max Wind Speed 15 mph    
Max Gust Speed 20 mph    
Visibility 8 miles    
Events Rain , Thunderstorm    
T = Trace of Precipitation, MM = Missing Value Source: NWS Daily Summary

Daily Weather History Graph

Daily Weather History Graph

Search for Another Location

Airport or City:

Trip Planner

Search our weather history database for the weather conditions in past years. The results will help you decide how hot, cold, wet, or windy it might be!

Date:

Astronomy

Aug. 04, 2013 Rise Set
Actual Time 6:30 AM CDT 8:34 PM CDT
Civil Twilight 6:00 AM CDT 9:04 PM CDT
Nautical Twilight 5:24 AM CDT 9:40 PM CDT
Astronomical Twilight 4:45 AM CDT 10:19 PM CDT
Moon 4:32 AM CDT (8/4) 6:58 PM CDT (8/4)
Length of Visible Light 15h 03m
Length of Day
14h 04m
Waning Crescent, 4% of the Moon is Illuminated
Aug 4
Waning Crescent
Aug 6
New
Aug 14
First Quarter
Aug 20
Full
Aug 28
Last Quarter

Hourly Weather History & Observations

Time (CDT) Temp. Dew Point Humidity Pressure Visibility Wind Dir Wind Speed Gust Speed Precip Events Conditions
12:52 AM 75.0 °F 69.1 °F 82% 30.05 in 10.0 mi ENE 11.5 mph - N/A   Mostly Cloudy
1:52 AM 73.9 °F 69.1 °F 85% 30.06 in 10.0 mi ENE 5.8 mph - N/A   Overcast
2:40 AM 73.4 °F 69.8 °F 88% 30.10 in 10.0 mi ENE 6.9 mph - N/A   Overcast
2:52 AM 73.9 °F 70.0 °F 87% 30.08 in 9.0 mi ENE 5.8 mph - 0.00 in Rain Light Rain
3:45 AM 73.4 °F 69.8 °F 88% 30.10 in 10.0 mi ENE 8.1 mph - 0.01 in   Overcast
3:52 AM 73.0 °F 70.0 °F 90% 30.07 in 10.0 mi ENE 9.2 mph - 0.01 in Rain Light Rain
4:06 AM 73.4 °F 69.8 °F 88% 30.08 in 10.0 mi East 10.4 mph - 0.00 in Rain , Thunderstorm Light Rain
4:25 AM 71.6 °F 69.8 °F 94% 30.08 in 10.0 mi ENE 9.2 mph - 0.00 in Rain , Thunderstorm Light Rain
4:52 AM 72.0 °F 68.0 °F 87% 30.07 in 10.0 mi Calm Calm - 0.00 in Thunderstorm Overcast
5:02 AM 71.6 °F 69.8 °F 94% 30.10 in 10.0 mi Variable 3.5 mph - 0.00 in Rain , Thunderstorm Light Rain
5:13 AM 71.6 °F 69.8 °F 94% 30.11 in 2.5 mi SW 8.1 mph - 0.05 in Rain , Thunderstorm Rain
5:20 AM 71.6 °F 69.8 °F 94% 30.10 in 1.5 mi Calm Calm - 0.11 in Rain Heavy Rain
5:31 AM 71.6 °F 69.8 °F 94% 30.11 in 3.0 mi Calm Calm - 0.15 in Rain Rain
5:42 AM 71.6 °F 69.8 °F 94% 30.10 in 3.0 mi ENE 4.6 mph - 0.20 in Rain Heavy Rain
5:52 AM 71.1 °F 69.1 °F 93% 30.08 in 4.0 mi NE 5.8 mph - 0.23 in Rain Rain
6:00 AM 69.8 °F 69.8 °F 100% 30.10 in 5.0 mi NE 4.6 mph - 0.01 in Rain Light Rain
6:12 AM 69.8 °F 69.8 °F 100% 30.11 in 4.0 mi NE 4.6 mph - 0.06 in Rain Heavy Rain
6:37 AM 69.8 °F 69.8 °F 100% 30.11 in 6.0 mi ENE 6.9 mph - 0.12 in Rain Rain
6:44 AM 69.8 °F 68.0 °F 94% 30.11 in 6.0 mi East 4.6 mph - 0.14 in Rain Rain
6:52 AM 70.0 °F 68.0 °F 93% 30.09 in 7.0 mi ENE 5.8 mph - 0.15 in Rain Light Rain
7:12 AM 69.8 °F 66.2 °F 88% 30.10 in 7.0 mi ENE 6.9 mph - 0.02 in Rain Light Rain
7:31 AM 69.8 °F 66.2 °F 88% 30.11 in 5.0 mi North 5.8 mph - 0.06 in Rain Rain
7:43 AM 68.0 °F 66.2 °F 94% 30.11 in 5.0 mi NE 6.9 mph - 0.09 in Rain Rain
7:52 AM 68.0 °F 66.9 °F 96% 30.09 in 5.0 mi NE 8.1 mph - 0.10 in Rain Rain
8:03 AM 68.0 °F 66.2 °F 94% 30.11 in 4.0 mi ENE 8.1 mph - 0.02 in Rain Rain
8:25 AM 68.0 °F 66.2 °F 94% 30.11 in 8.0 mi East 3.5 mph - 0.04 in Rain Light Rain
8:36 AM 69.8 °F 66.2 °F 88% 30.10 in 10.0 mi SE 9.2 mph - 0.05 in Rain Light Rain
8:52 AM 69.1 °F 66.9 °F 93% 30.10 in 10.0 mi NNE 4.6 mph - 0.05 in Rain Light Rain
9:00 AM 69.8 °F 66.2 °F 88% 30.13 in 8.0 mi NNE 6.9 mph - 0.00 in Rain Light Rain
9:09 AM 69.8 °F 66.2 °F 88% 30.13 in 8.0 mi NE 10.4 mph - 0.01 in Rain Light Rain
9:52 AM 69.1 °F 66.9 °F 93% 30.11 in 10.0 mi NE 10.4 mph - 0.01 in   Overcast
10:52 AM 70.0 °F 68.0 °F 93% 30.09 in 10.0 mi East 9.2 mph - N/A   Overcast
11:52 AM 71.1 °F 68.0 °F 90% 30.09 in 10.0 mi East 11.5 mph - N/A   Overcast
12:52 PM 72.0 °F 68.0 °F 87% 30.06 in 10.0 mi East 6.9 mph - N/A   Overcast
1:52 PM 73.0 °F 69.1 °F 87% 30.05 in 10.0 mi ENE 9.2 mph - N/A   Overcast
2:30 PM 75.2 °F 69.8 °F 83% 30.07 in 10.0 mi East 5.8 mph - N/A   Overcast
2:52 PM 75.9 °F 71.1 °F 85% 30.04 in 10.0 mi ESE 8.1 mph - N/A   Overcast
3:52 PM 77.0 °F 70.0 °F 79% 30.03 in 10.0 mi ESE 9.2 mph - N/A   Overcast
4:52 PM 75.9 °F 71.1 °F 85% 30.02 in 10.0 mi ESE 9.2 mph - N/A   Overcast
5:52 PM 75.9 °F 71.1 °F 85% 30.01 in 10.0 mi ESE 5.8 mph - N/A   Overcast
6:27 PM 77.0 °F 71.6 °F 83% 30.02 in 10.0 mi SE 8.1 mph - N/A   Overcast
6:52 PM 77.0 °F 71.1 °F 82% 29.99 in 10.0 mi SE 4.6 mph - N/A   Mostly Cloudy
7:00 PM 77.0 °F 71.6 °F 83% 30.01 in 10.0 mi SE 4.6 mph - N/A   Overcast
7:52 PM 75.0 °F 71.1 °F 87% 29.99 in 10.0 mi ESE 5.8 mph - N/A   Overcast
8:33 PM 73.4 °F 71.6 °F 94% 30.02 in 10.0 mi SE 3.5 mph - N/A   Mostly Cloudy
8:52 PM 73.9 °F 71.1 °F 91% 30.00 in 10.0 mi Calm Calm - N/A   Mostly Cloudy
9:32 PM 73.4 °F 69.8 °F 88% 30.03 in 10.0 mi ESE 3.5 mph - N/A   Partly Cloudy
9:52 PM 73.0 °F 70.0 °F 90% 30.01 in 10.0 mi East 4.6 mph - N/A   Partly Cloudy
10:07 PM 73.4 °F 71.6 °F 94% 30.04 in 10.0 mi East 3.5 mph - N/A   Mostly Cloudy
10:52 PM 73.0 °F 71.1 °F 93% 30.01 in 10.0 mi East 4.6 mph - N/A   Overcast
11:52 PM 73.0 °F 71.1 °F 93% 30.00 in 10.0 mi East 3.5 mph - N/A   Overcast